Location: Aranbee
(34.0885°N, 118.2342°W)
Time: 22:49:17
(UTC+00:00)

A-11 Canister half - All Passes

Search period start: 25 November 2020 00:00
Search period end: 05 December 2020 00:00
Orbit: 1525 x 1683 km, 47.3° (Epoch: 25 November)

Date Brightness Start Highest point End Pass type
(mag) Time Alt. Az. Time Alt. Az. Time Alt. Az.
25 Nov - 12:01:47 10° S 12:09:50 28° SE 12:17:49 10° ENE visible
25 Nov - 14:03:57 10° SW 14:14:09 89° SE 14:24:12 10° NE visible
25 Nov - 16:10:44 10° W 16:20:15 44° NNW 16:29:32 10° NE daylight
25 Nov - 18:18:21 10° WNW 18:27:32 40° N 18:36:25 10° ENE daylight
25 Nov - 20:24:10 10° NW 20:33:58 74° NNE 20:43:24 10° ESE daylight
25 Nov - 22:30:01 10° WNW 22:38:28 36° SW 22:46:43 10° SSE daylight
26 Nov - 11:40:26 10° S 11:48:14 26° SE 11:55:58 10° ENE visible
26 Nov - 13:42:16 10° SW 13:52:29 86° SE 14:02:31 10° NE visible
26 Nov - 15:48:55 10° W 15:58:29 45° NNW 16:07:51 10° NE daylight
26 Nov - 17:56:36 10° WNW 18:05:46 39° N 18:14:39 10° ENE daylight
26 Nov - 20:02:28 10° NW 20:12:17 71° NNE 20:21:43 10° ESE daylight
26 Nov - 22:08:14 10° WNW 22:16:52 39° SW 22:25:17 10° SSE daylight
27 Nov - 11:19:06 10° S 11:26:36 24° SE 11:34:05 10° ENE visible
27 Nov - 13:20:36 10° SW 13:30:47 83° SE 13:40:51 10° NE visible
27 Nov - 15:27:07 10° W 15:36:44 46° NNW 15:46:09 10° NE daylight
27 Nov - 17:34:49 10° WNW 17:44:00 39° N 17:52:53 10° ENE daylight
27 Nov - 19:40:47 10° NW 19:50:36 68° NNE 20:00:03 10° ESE daylight
27 Nov - 21:46:29 10° WNW 21:55:16 41° SW 22:03:50 10° SSE daylight
28 Nov - 10:57:48 10° S 11:05:00 22° SE 11:12:11 10° E visible
28 Nov - 12:58:56 10° SW 13:09:06 80° SE 13:19:10 10° NE visible
28 Nov - 15:05:18 10° W 15:14:58 47° NNW 15:24:27 10° NE daylight
28 Nov - 17:13:02 10° WNW 17:22:13 39° N 17:31:08 10° ENE daylight
28 Nov - 19:19:05 10° NW 19:28:54 66° NNE 19:38:21 10° ESE daylight
28 Nov - 21:24:43 10° WNW 21:33:40 44° SW 21:42:22 10° SSE daylight
29 Nov - 10:36:31 10° SSE 10:43:24 21° SE 10:50:15 10° E visible
29 Nov - 12:37:17 10° SW 12:47:26 76° SE 12:57:29 10° NE visible
29 Nov - 14:43:28 10° W 14:53:13 49° NNW 15:02:47 10° NE daylight
29 Nov - 16:51:16 10° WNW 17:00:27 38° N 17:09:22 10° ENE daylight
29 Nov - 18:57:22 10° NW 19:07:12 64° NNE 19:16:39 10° ESE daylight
29 Nov - 21:02:58 10° WNW 21:12:03 47° SW 21:20:53 10° SSE daylight
30 Nov - 10:15:18 10° SSE 10:21:47 19° ESE 10:28:16 10° E visible
30 Nov - 12:15:40 10° SW 12:25:45 73° SE 12:35:48 10° ENE visible
30 Nov - 14:21:41 10° W 14:31:27 50° NNW 14:41:05 10° NE daylight
30 Nov - 16:29:28 10° WNW 16:38:40 38° N 16:47:36 10° ENE daylight
30 Nov - 18:35:41 10° NW 18:45:30 61° NNE 18:54:56 10° ESE daylight
30 Nov - 20:41:14 10° WNW 20:50:27 50° SW 20:59:23 10° SSE daylight
01 Dec - 09:54:07 10° SSE 10:00:11 18° ESE 10:06:15 10° E visible
01 Dec - 11:54:02 10° SW 12:04:05 70° SE 12:14:06 10° ENE visible
01 Dec - 13:59:53 10° W 14:09:42 51° NNW 14:19:24 10° NE visible
01 Dec - 16:07:41 10° WNW 16:16:53 38° N 16:25:51 10° ENE daylight
01 Dec - 18:13:58 10° NW 18:23:47 59° NNE 18:33:14 10° ESE daylight
01 Dec - 20:19:29 10° WNW 20:28:50 52° SW 20:37:53 10° SSE daylight
02 Dec - 09:33:00 10° SSE 09:38:35 16° ESE 09:44:10 10° E visible
02 Dec - 11:32:25 10° SW 11:42:25 66° SE 11:52:24 10° ENE visible
02 Dec - 13:38:04 10° W 13:47:58 53° NNW 13:57:43 10° NE visible
02 Dec - 15:45:53 10° WNW 15:55:07 38° N 16:04:05 10° ENE daylight
02 Dec - 17:52:15 10° NW 18:02:04 58° NNE 18:11:30 10° ESE daylight
02 Dec - 19:57:45 10° WNW 20:07:12 55° SW 20:16:21 10° SSE daylight
02 Dec - 22:08:36 10° WSW 22:10:39 11° WSW 22:12:42 10° SW daylight
03 Dec - 09:11:58 10° SSE 09:16:59 15° ESE 09:22:00 10° E visible
03 Dec - 11:10:49 10° SW 11:20:45 63° SE 11:30:42 10° ENE visible
03 Dec - 13:16:18 10° W 13:26:13 55° NNW 13:36:02 10° NE visible
03 Dec - 15:24:05 10° WNW 15:33:19 38° N 15:42:21 10° ENE daylight
03 Dec - 17:30:33 10° NW 17:40:21 56° NNE 17:49:47 10° ESE daylight
03 Dec - 19:36:01 10° WNW 19:45:35 59° SW 19:54:49 10° SSE daylight
03 Dec - 21:45:48 10° W 21:49:05 12° WSW 21:52:21 10° SW daylight
04 Dec - 08:51:02 10° SSE 08:55:23 14° ESE 08:59:45 10° E visible
04 Dec - 10:49:13 10° SSW 10:59:05 60° SE 11:08:59 10° ENE visible
04 Dec - 12:54:31 10° WSW 13:04:28 56° NNW 13:14:20 10° NE visible
04 Dec - 15:02:17 10° WNW 15:11:32 38° N 15:20:35 10° ENE daylight
04 Dec - 17:08:50 10° NW 17:18:37 54° NNE 17:28:04 10° E daylight
04 Dec - 19:14:17 10° WNW 19:23:57 62° SW 19:33:17 10° SSE daylight
04 Dec - 21:23:23 10° W 21:27:31 13° WSW 21:31:37 10° SSW daylight
